VK2RZ Weather Reports


time (UTC)temp
F
wind
direction
speed
knots
gust
knots
rain 1hr
in
rain 24hr
in
rain mn
in
humidity
%
barometer
mb
20260509182126 56 259 2.6 7.8 0.00 0.00 0.00 7 1026.2
20260509181126 56 241 4.3 6.1 0.00 0.00 0.00 7 1026.2
20260509180126 56 250 3.5 6.1 0.00 0.00 0.00 7 1026.1
20260509175126 56 254 7.0 7.8 0.00 0.00 0.00 7 1026.2
20260509174126 56 253 6.1 7.0 0.00 0.00 0.00 7 1026.2
20260509173126 56 254 1.7 7.0 0.00 0.00 0.00 7 1026.0
20260509172126 56 236 8.7 8.7 0.00 0.00 0.00 7 1026.0
20260509171126 57 254 2.6 7.8 0.00 0.00 0.00 7 1026.1
20260509170126 57 261 3.5 9.6 0.00 0.00 0.00 7 1026.1
20260509165126 57 231 2.6 7.0 0.00 0.00 0.00 7 1026.1
20260509164126 57 243 3.5 8.7 0.00 0.00 0.00 7 1026.0
20260509163126 58 246 3.5 7.8 0.00 0.00 0.00 7 1025.9
20260509162126 58 216 6.1 8.7 0.00 0.00 0.00 7 1026.0
20260509161126 58 225 6.1 9.6 0.00 0.00 0.00 7 1026.0
20260509160126 58 224 5.2 10.4 0.00 0.00 0.00 7 1026.0
20260509155126 58 263 6.1 7.8 0.00 0.00 0.00 7 1026.1
20260509154126 58 233 4.3 9.6 0.00 0.00 0.00 7 1026.1
20260509153126 58 243 1.7 10.4 0.00 0.00 0.00 7 1026.1
20260509152126 58 246 4.3 8.7 0.00 0.00 0.00 7 1026.2
20260509151126 58 239 7.8 10.4 0.00 0.00 0.00 7 1026.2
20260509150126 58 264 10.4 12.2 0.00 0.00 0.00 7 1026.2
20260509145126 58 234 3.5 8.7 0.00 0.00 0.00 7 1026.3
20260509144125 58 258 6.1 10.4 0.00 0.00 0.00 7 1026.2
20260509143125 58 247 7.0 8.7 0.00 0.00 0.00 7 1026.2
20260509142244 58 215 5.2 8.7 0.00 0.00 0.00 7 1026.2
20260509142125 58 215 5.2 8.7 0.00 0.00 0.00 7 1026.2
20260509141125 57 220 7.8 10.4 0.00 0.00 0.00 7 1026.1
20260509140125 58 258 6.1 7.0 0.00 0.00 0.00 7 1026.1
20260509135125 58 229 3.5 8.7 0.00 0.00 0.00 7 1026.2
20260509134125 58 248 7.8 8.7 0.00 0.00 0.00 7 1026.3
20260509133125 58 252 4.3 8.7 0.00 0.00 0.00 7 1026.3
20260509132125 58 223 3.5 10.4 0.00 0.00 0.00 7 1026.3
20260509131125 59 251 8.7 9.6 0.00 0.00 0.00 7 1026.3
20260509130125 59 276 3.5 8.7 0.00 0.00 0.00 7 1026.4
20260509125125 59 260 4.3 9.6 0.00 0.00 0.00 7 1026.4
20260509124125 59 251 2.6 7.8 0.00 0.00 0.00 7 1026.5
20260509123125 60 237 3.5 9.6 0.00 0.00 0.00 7 1026.4
20260509122125 60 234 3.5 6.1 0.00 0.00 0.00 7 1026.5
20260509121124 60 247 3.5 3.5 0.00 0.00 0.00 7 1026.5
20260509120124 60 257 0.9 3.5 0.00 0.00 0.00 7 1026.6
20260509115124 60 239 3.5 4.3 0.00 0.00 0.00 7 1026.6
20260509114124 60 254 2.6 3.5 0.00 0.00 0.00 7 1026.5
20260509113122 61 237 1.7 3.5 0.00 0.00 0.00 7 1026.5
20260509112122 60 241 1.7 3.5 0.00 0.00 0.00 7 1026.5
20260509111122 60 248 0.9 4.3 0.00 0.00 0.00 7 1026.5
20260509110122 60 244 2.6 3.5 0.00 0.00 0.00 7 1026.5
20260509105122 60 316 0.9 2.6 0.00 0.00 0.00 7 1026.4
20260509104122 60 316 2.6 3.5 0.00 0.00 0.00 7 1026.4
20260509103122 60 70 2.6 2.6 0.00 0.00 0.00 7 1026.3
20260509102122 60 0 0.0 0.0 0.00 0.00 0.00 7 1026.2
20260509101122 60 0 0.0 0.0 0.00 0.00 0.00 7 1026.1
20260509100122 60 0 0.0 0.0 0.00 0.00 0.00 7 1026.0
20260509095121 61 0 0.0 0.0 0.00 0.00 0.00 7 1025.9
20260509094121 61 0 0.0 0.0 0.00 0.00 0.00 7 1025.9
20260509093120 60 0 0.0 0.0 0.00 0.00 0.00 7 1025.9
20260509092120 60 0 0.0 0.0 0.00 0.00 0.00 7 1025.9
20260509091120 61 0 0.0 0.0 0.00 0.00 0.00 7 1025.7
20260509090120 61 0 0.0 0.0 0.00 0.00 0.00 7 1025.6
20260509085120 61 0 0.0 0.0 0.00 0.00 0.00 7 1025.4
20260509084120 60 0 0.0 0.0 0.00 0.00 0.00 7 1025.3
20260509083120 61 0 0.0 0.0 0.00 0.00 0.00 7 1025.2
20260509082120 60 0 0.0 0.0 0.00 0.00 0.00 7 1025.1
20260509081120 61 0 0.0 0.0 0.00 0.00 0.00 7 1025.0
20260509080120 61 0 0.0 0.0 0.00 0.00 0.00 7 1024.8
20260509075120 60 0 0.0 0.0 0.00 0.00 0.00 7 1024.8
20260509074120 61 0 0.0 0.0 0.00 0.00 0.00 7 1024.7
20260509073120 61 0 0.0 0.0 0.00 0.00 0.00 7 1024.6
20260509072120 61 0 0.0 0.0 0.00 0.00 0.00 7 1024.6
20260509071120 62 0 0.0 0.9 0.00 0.00 0.00 7 1024.5
20260509070120 62 0 0.0 0.0 0.00 0.00 0.00 7 1024.4
20260509065120 63 70 0.9 2.6 0.00 0.00 0.00 6 1024.3
20260509064120 63 89 1.7 1.7 0.00 0.00 0.00 6 1024.1
20260509063120 63 0 0.0 2.6 0.00 0.00 0.00 6 1024.1
20260509062120 63 0 0.0 7.0 0.00 0.00 0.00 6 1024.0
20260509061120 64 74 0.9 6.1 0.00 0.00 0.00 6 1023.9
20260509060120 64 135 3.5 3.5 0.00 0.00 0.00 6 1023.7
20260509055120 64 143 0.9 5.2 0.00 0.00 0.00 6 1023.7
20260509054120 64 117 2.6 7.0 0.00 0.00 0.00 6 1023.7
20260509053119 65 149 0.9 2.6 0.00 0.00 0.00 6 1023.6
20260509052118 65 111 2.6 7.0 0.00 0.00 0.00 6 1023.6
20260509051118 65 114 7.0 8.7 0.00 0.00 0.00 6 1023.5
20260509050118 65 135 1.7 7.0 0.00 0.00 0.00 6 1023.5
20260509045118 65 90 2.6 7.8 0.00 0.00 0.00 6 1023.5
20260509044118 66 167 3.5 7.8 0.00 0.00 0.00 6 1023.4
20260509043118 66 106 3.5 5.2 0.00 0.00 0.00 6 1023.4
20260509042118 66 164 1.7 4.3 0.00 0.00 0.00 6 1023.3
20260509041118 66 175 2.6 4.3 0.00 0.00 0.00 6 1023.2
20260509040117 67 145 3.5 4.3 0.00 0.00 0.00 6 1023.3
20260509035117 67 133 7.0 10.4 0.00 0.00 0.00 5 1023.3
20260509034117 67 137 4.3 7.0 0.00 0.00 0.00 5 1023.2
20260509033117 68 0 0.0 2.6 0.00 0.00 0.00 5 1023.3
20260509032117 67 157 1.7 4.3 0.00 0.00 0.00 5 1023.4
20260509031117 67 0 0.0 1.7 0.00 0.00 0.00 5 1023.4
20260509030117 68 123 0.9 0.9 0.00 0.00 0.00 5 1023.5
20260509025117 67 0 0.0 3.5 0.00 0.00 0.00 5 1023.6
20260509024117 67 0 0.0 2.6 0.00 0.00 0.00 5 1023.7
20260509023117 68 230 3.5 4.3 0.00 0.00 0.00 5 1023.9
20260509022117 67 141 1.7 4.3 0.00 0.00 0.00 5 1024.0
20260509021117 67 230 0.9 5.2 0.00 0.00 0.00 5 1024.1
20260509020117 68 210 0.9 3.5 0.00 0.00 0.00 5 1024.2
20260509015117 66 175 0.9 5.2 0.00 0.00 0.00 5 1024.4
20260509014117 67 185 1.7 4.3 0.00 0.00 0.00 5 1024.5
20260509013117 67 216 1.7 4.3 0.00 0.00 0.00 5 1024.5
20260509012117 66 195 0.9 3.5 0.00 0.00 0.00 5 1024.6
20260509011117 66 237 1.7 4.3 0.00 0.00 0.00 5 1024.6
20260509010117 65 216 1.7 6.1 0.00 0.00 0.00 5 1024.5
20260509005117 64 239 3.5 6.1 0.00 0.00 0.00 5 1024.6
20260509004117 65 233 1.7 6.1 0.00 0.00 0.00 5 1024.6
20260509003117 64 238 1.7 7.8 0.00 0.00 0.00 5 1024.6
20260509002117 64 198 0.9 7.8 0.00 0.00 0.00 6 1024.7
20260509001150 63 231 6.1 6.1 0.00 0.00 0.00 6 1024.8
20260509001117 63 231 6.1 6.1 0.00 0.00 0.00 6 1024.8
20260509000117 62 233 2.6 4.3 0.00 0.00 0.00 6 1024.7
20260508235117 62 262 7.8 7.8 0.00 0.00 0.00 6 1024.8
20260508234117 61 216 7.8 10.4 0.00 0.00 0.00 6 1025.0
20260508233117 61 219 3.5 9.6 0.00 0.00 0.00 6 1024.9
20260508232117 60 248 7.8 8.7 0.00 0.00 0.00 6 1024.8
20260508231117 60 189 2.6 12.2 0.00 0.00 0.00 6 1024.8
20260508230117 59 245 10.4 12.2 0.00 0.00 0.00 6 1024.8
20260508225117 59 245 9.6 11.3 0.00 0.00 0.00 6 1024.8
20260508224117 58 249 4.3 13.9 0.00 0.00 0.00 6 1024.7
20260508223117 58 250 4.3 11.3 0.00 0.00 0.00 6 1024.8
20260508222117 57 256 7.0 10.4 0.00 0.00 0.00 7 1024.7
20260508221117 57 249 9.6 12.2 0.00 0.00 0.00 7 1024.6
20260508220117 57 249 7.8 12.2 0.00 0.00 0.00 7 1024.5
20260508215116 56 231 11.3 11.3 0.00 0.00 0.00 7 1024.5
20260508214116 56 266 6.1 8.7 0.00 0.00 0.00 7 1024.3
20260508213116 56 236 7.8 13.9 0.00 0.00 0.00 7 1024.3
20260508212116 55 250 10.4 10.4 0.00 0.00 0.00 7 1024.1
20260508211116 55 247 3.5 7.0 0.00 0.00 0.00 7 1023.9
20260508210116 55 235 3.5 9.6 0.00 0.00 0.00 7 1023.8
20260508205116 55 256 3.5 7.0 0.00 0.00 0.00 7 1023.6
20260508204116 55 237 4.3 7.0 0.00 0.00 0.00 7 1023.6
20260508203116 56 259 6.1 12.2 0.00 0.00 0.00 7 1023.5
20260508202116 56 258 7.8 9.6 0.00 0.00 0.00 7 1023.3
20260508201116 57 237 8.7 12.2 0.00 0.00 0.00 7 1023.2
20260508200116 57 264 8.7 12.2 0.00 0.00 0.00 7 1023.1
20260508195116 57 238 3.5 9.6 0.00 0.00 0.00 7 1023.0
20260508194116 56 227 8.7 10.4 0.00 0.00 0.00 7 1022.9
20260508193116 56 241 9.6 9.6 0.00 0.00 0.00 7 1022.6
20260508192116 56 235 4.3 7.0 0.00 0.00 0.00 7 1022.6
20260508191116 56 282 3.5 8.7 0.00 0.00 0.00 7 1022.5
20260508190116 56 239 2.6 9.6 0.00 0.00 0.00 7 1022.5
20260508185116 56 245 5.2 7.8 0.00 0.00 0.00 7 1022.5
20260508184116 56 235 1.7 8.7 0.00 0.00 0.00 7 1022.4
20260508183116 56 255 9.6 9.6 0.00 0.00 0.00 7 1022.4